Other Surface Observations
Issued by NWS

Home | Current Version | Previous Version | Text Only | Print | Product List | Glossary On
Versions: 1 2 3 4 5 6 7 8 9 10 11 12 13 14 15 16 17 18 19 20 21 22 23 24 25 26 27 28 29 30 31 32 33 34 35 36 37 38 39 40 41 42 43 44 45 46 47 48 49 50
000
SXUS52 KTAE 291819
OSOTAE
OSOTAE
North Florida/South Alabama/Southwest Georgia Weather Roundup
National Weather Service Tallahassee Florida
200 PM EDT MON MAY 29 2017

Note: "fair" indicates few or no clouds below 12,000 feet with no
significant weather and/or obstructions to visibility.

!FLZ017-115-028-034-025-291900
...North Florida...

CITY           SKY/WX    TMP DP  RH WIND       PRES   REMARKS
TALLAHASSEE    PTSUNNY   89  71  55 SW8       30.05F HX  95
APALACHICOLA     N/A    N/A N/A N/A MISG      30.07F
PERRY          MOSUNNY   89  74  59 W10       30.06F HX  98
CROSS CITY     MOSUNNY   90  72  55 W12       30.06F HX  96
JACKSONVILLE   PTSUNNY   93  72  50 NE3       30.02F HX 101
$$

!FLZ112-006-005-002-011-291900
...Florida Panhandle...

CITY           SKY/WX    TMP DP  RH WIND       PRES   REMARKS
MARIANNA       MOSUNNY   89  70  53 SW12      30.04F HX  94
BONIFAY        NOT AVBL
PANAMA CITY NW FAIR      84  73  69 S15       30.05F HX  90
TYNDALL AFB    PTSUNNY   83  76  77 SW12      30.06F HX  91
TYND DRONE APT FAIR      83  77  81 SW7       30.06F HX  91
DE FUNIAK SPR  FAIR      85  71  62 SW13G18   30.05F
EGLIN AFB      PTSUNNY   84  75  73 SW13      30.05F HX  91
DESTIN         MOSUNNY   86  81  85 VRB6      30.05S HX 102
HURLBURT       PTSUNNY   82  75  78 SW13      30.04F
CRESTVIEW      PTSUNNY   86  74  67 SW8       30.05F HX  94
PENSACOLA      PTSUNNY   88  71  57 SW12      30.04F HX  94
$$

!ALZ063-066-291900
...South Alabama...

CITY           SKY/WX    TMP DP  RH WIND       PRES   REMARKS
DOTHAN         PTSUNNY   85  72  65 SW14      30.07F HX  91
OZARK CAIRNS   CLOUDY    85  72  64 SW13      30.04F HX  90
FT RUCKER HELI CLOUDY    84  71  65 W13       30.04F
RUCKER HELI 3  FAIR      83  71  65 SW10      30.04F
RUCKER HELI 2  FAIR      82  72  69 SW9       30.03S HAZE
FLORALA APT    CLOUDY    84  73  69 S9        30.06F HX  90
ANDALUSIA      CLOUDY    85  70  60 W8        30.05F
TROY           CLOUDY    81  70  69 W13G20    30.06F
EUFALA         FAIR      87  71  58 VRB7      30.02F HX  93
MOBILE         PTSUNNY   84  70  62 NW6       30.04F
$$

!GAZ120>161-291900
...Southwest and South Central Georgia...

CITY           SKY/WX    TMP DP  RH WIND       PRES   REMARKS
THOMASVILLE    FAIR      91  73  55 SW12      30.05F HX 100
BAINBRIDGE     MOSUNNY   90  72  55 W15G23    30.05F HX  96
MOODY AFB      CLOUDY    91  66  43 SW9       30.02F HX  94
VALDOSTA       PTSUNNY   92  68  45 VRB6      30.03F HX  96
MOULTRIE       PTSUNNY   90  68  48 SW8       30.04F HX  93
BLAKELY        MOSUNNY   88  70  55 SW12G18   30.05F HX  92
ALBANY         PTSUNNY   91  69  48 W14       30.05R HX  96
TIFTON         FAIR      90  69  49 S9        30.02F HX  94
FITZGERALD     FAIR      91  72  53 W9        30.04F HX  99
CORDELE        FAIR      92  69  47 SW10      30.04S HX  97
AMERICUS       FAIR      88  64  45 W8        30.05S
HOMERVILLE     FAIR     N/A N/A N/A W6        30.04F
$$

!GMZ750-755-770-775-291900
...Coastal and Buoy Obs...

STATION/POSITION TIME  TEMP    WIND        PRES    VSBY  WAVE
                       AIR SEA DIR/SP/G                  HT/PER
                 (UTC) (F)     (DEG/KT/KT) (MB)    (MI)  (FT/S)
KEATON BEACH     1800   80     240/ 10/ 12 1018.3S
CEDAR KEY        1800   81     260/  7/ 10 1019.0F
C TOWER          1800   80     250/  7/  7 1019.3F
APALACHICOLA BUO 1750   80 81  180/  2/  4 1018.9F         1/ 4
PANAMA CITY BUOY 1750   80 82  240/  2/  4 1018.5F         2/ 7
MOBILE BUOY      1800   80 80  250/  4/  6 1017.4
ORANGE BCH AL BU 1750   79 80  230/ 10/ 12 1016.9F         3/ 6
$$




USA.gov is the U.S. government's official web portal to all federal, state and local government web resources and services.